Location: Krasnoyarskiy Pitomnik
(51.1333°N, 71.6167°E)
Time: 14:09:30
(UTC+00:00)

Altair - Pass Details

Date: 21 April 2024
Orbit: 1501 x 1682 km, 47.2° (Epoch: 28 April)

Event Time Altitude Azimuth Distance (km) Brightness Sun altitude
Rises 15:18:44 0° 247° (WSW) 4,912 10.7 -9.1°
Reaches altitude 10° 15:21:56 10° 245° (WSW) 3,911 10.1 -9.5°
Maximum altitude 15:31:48 66° 166° (SSE) 1,750 7.6 -10.8°
Drops below altitude 10° 15:41:19 10° 87° (E) 3,784 9.1 -12.0°
Enters shadow 15:44:05 - 85° (E) 4,658 9.6 -12.3°
